Simultaneous Nadir Overpasses (SNOs) Predictions

Prediction of SNOs between GOES-16 and METOP-C Satellite Orbit:

Table of predicted SNOs for the next 14.0 days since TLE Epoch: 11/9/2024
Index Date Time (GOES-16) GOES-16 Lat,Lon METOP-C Lat,Lon Distance(km) Time Diff (sec)
1 11/09/2024 14:22:11 -0.03, -75.22 -0.46, -73.16 233.87 80
2 11/11/2024 02:43:51 0.03, -75.21 -0.54, -77.75 290.03 80
3 11/12/2024 02:20:30 0.03, -75.22 0.58, -72.75 280.66 80
4 11/13/2024 14:41:59 -0.03, -75.25 0.45, -77.30 234.17 80
5 11/14/2024 14:18:39 -0.03, -75.26 -0.68, -72.30 336.80 80
6 11/16/2024 02:40:17 0.02, -75.26 -0.34, -76.89 186.07 80
7 11/17/2024 02:16:57 0.02, -75.27 0.80, -71.90 385.18 80
8 11/18/2024 14:38:25 -0.01, -75.31 0.26, -76.43 128.84 80
9 11/19/2024 14:15:05 -0.01, -75.32 -0.89, -71.44 442.87 80
10 11/21/2024 02:36:42 0.00, -75.33 -0.14, -76.02 78.52 80
11 11/22/2024 02:13:20 -0.00, -75.35 0.97, -71.02 493.83 80
